CAPE
nan nan nan nan nan nan nan nan nan nan nan nan nan nan nan nan nan nan nan nan nan nan nan nan nan nan nan nan nan nan 1 7 19 19 29 38 46 46 53 59 59 67 72 76 76 78 83 78 78 72 62 60 59 59 62 64 64 67 71 72 72 71 75 81 81 91 102 118 138 138 145 147 142 142 137 145 148 148 152 173 173 170 165 138 138 109
nan nan nan nan nan nan nan nan nan nan nan nan nan nan nan nan nan nan nan nan nan nan nan nan nan nan nan nan nan nan nan 4 17 17 30 40 46 46 54 62 62 66 73 76 76 81 81 81 81 67 61 57 54 54 56 59 59 62 64 67 67 69 74 87 87 96 109 124 130 130 147 151 154 154 151 156 160 160 164 171 171 161 139 110 110 95
nan nan nan nan nan nan nan nan nan nan nan nan nan nan nan nan nan nan nan nan nan nan nan nan nan nan nan nan nan nan nan 1 14 14 27 42 49 49 56 64 64 69 75 76 76 79 81 75 75 70 61 60 55 55 55 58 58 57 56 56 56 62 71 81 81 88 105 124 132 132 137 139 154 154 162 165 160 160 156 146 146 126 108 90 90 72
nan nan nan nan nan nan nan nan nan nan nan nan nan nan nan nan nan nan nan nan nan nan nan nan nan nan nan nan nan nan nan nan 8 8 24 37 50 50 62 71 71 76 79 82 82 83 81 76 76 69 65 60 58 58 56 58 58 53 48 51 51 53 61 71 71 80 94 107 114 114 120 127 137 137 145 147 141 141 129 118 118 105 90 75 75 68
nan nan nan nan nan nan nan nan nan nan nan nan nan nan nan nan nan nan nan nan nan nan nan nan nan nan nan nan nan nan nan nan 5 5 21 37 52 52 65 73 73 79 83 88 88 88 89 84 84 70 63 58 60 60 57 53 53 48 44 48 48 50 58 65 65 79 87 90 98 98 100 104 115 115 119 123 117 117 109 98 98 84 76 69 69 64
nan nan nan nan nan nan nan nan nan nan nan nan nan nan nan nan nan nan nan nan nan nan nan nan nan nan nan nan nan nan nan nan 2 2 17 32 49 49 67 79 79 85 90 94 94 93 93 84 84 74 63 59 61 61 56 56 56 49 44 42 42 45 54 62 62 73 79 81 79 79 83 89 95 95 101 105 92 92 79 72 72 74 71 66 66 61
nan nan nan nan nan nan nan nan nan nan nan nan nan nan nan nan nan nan nan nan nan nan nan nan nan nan nan nan nan nan nan nan 2 2 13 29 44 44 67 82 82 92 94 102 102 99 98 84 84 74 65 63 60 60 57 52 52 45 42 40 40 42 49 59 59 66 72 68 73 73 74 80 84 84 92 87 72 72 61 59 59 64 65 62 62 60
nan nan nan nan nan nan nan nan nan nan nan nan nan nan nan nan nan nan nan nan nan nan nan nan nan nan nan nan nan nan nan nan nan nan nan 3 20 20 43 73 73 89 99 102 102 103 95 81 81 72 64 62 60 60 60 56 56 48 44 40 40 40 49 60 60 63 69 71 77 77 79 86 86 86 85 73 59 59 50 50 50 48 50 50 50 54
nan nan nan nan nan nan nan nan nan nan nan nan nan nan nan nan nan nan nan nan nan nan nan nan nan nan nan nan nan nan nan nan nan nan nan nan nan nan 8 43 43 78 97 98 98 98 93 77 77 69 66 64 66 66 64 59 59 53 48 45 45 42 47 59 59 64 70 74 81 81 90 93 95 95 87 68 55 55 46 42 42 39 41 45 45 47
nan nan nan nan nan nan nan nan 0 0 1 nan nan nan nan nan nan nan nan nan nan nan nan nan nan nan nan nan nan nan nan nan 3 3 4 0 3 3 2 6 6 23 63 77 77 85 83 76 76 71 68 67 67 67 67 64 64 59 53 51 51 47 49 60 60 68 76 84 92 92 100 103 94 94 79 62 47 47 43 37 37 32 34 38 38 40
nan nan nan nan nan nan nan nan nan nan 0 nan nan nan nan nan nan nan nan nan nan nan nan nan nan nan nan nan 0 0 0 nan nan nan 0 3 4 4 6 7 7 11 27 45 45 61 67 67 67 71 67 67 66 66 67 62 62 59 56 52 52 53 56 63 63 78 81 100 108 108 112 107 95 95 78 60 43 43 39 31 31 29 29 31 31 32
nan nan nan nan nan nan nan nan 0 0 nan nan 0 0 2 1 nan nan nan nan nan nan nan nan nan nan nan 0 1 1 1 nan nan nan nan nan nan nan 0 0 0 3 6 13 13 26 51 56 56 67 61 60 65 65 64 57 57 58 54 53 53 56 61 72 72 86 97 110 119 119 118 111 90 90 71 55 39 39 34 29 29 29 28 28 28 30
nan nan nan nan nan nan nan nan nan nan nan nan 1 1 2 0 nan nan nan nan nan nan nan nan nan nan 0 1 1 1 0 0 nan nan nan nan nan nan nan nan nan nan nan nan nan nan 10 37 37 49 54 49 56 56 60 54 54 58 55 58 58 59 68 78 78 92 108 123 126 126 123 110 90 90 67 49 38 38 30 29 29 28 28 29 29 30
nan nan nan nan nan nan nan nan nan nan nan nan nan nan nan nan nan nan nan 0 0 nan nan nan nan 0 0 1 2 2 1 0 0 0 nan nan nan nan nan nan nan nan nan nan nan nan 0 2 2 2 30 35 40 40 44 51 51 57 59 63 63 67 78 93 93 110 121 127 123 123 115 101 83 83 57 41 35 35 28 25 25 28 28 31 31 31
nan nan nan nan nan nan nan nan nan nan nan nan nan nan nan nan nan nan nan nan nan nan nan 0 0 1 0 nan 1 1 1 1 0 0 nan nan nan nan nan nan nan nan nan nan nan nan nan nan nan nan 0 8 13 13 23 36 36 62 60 70 70 77 89 102 102 116 126 130 120 120 107 87 63 63 45 37 29 29 30 26 26 30 30 32 32 32
nan nan nan nan nan nan nan nan nan nan nan nan nan nan nan nan nan nan nan nan nan nan nan 0 0 1 0 1 0 0 0 1 1 1 0 0 nan nan nan nan nan nan nan nan nan nan nan nan nan nan nan 7 23 23 31 38 38 56 62 72 72 83 97 110 110 122 128 124 115 115 89 66 47 47 39 35 29 29 27 27 27 31 32 32 32 34
nan nan nan nan nan nan nan nan nan nan nan nan nan nan nan nan nan nan nan nan nan nan nan nan nan 0 0 1 2 2 1 1 2 2 1 0 0 0 nan nan nan nan nan nan nan nan nan nan nan nan nan 10 24 24 34 46 46 55 62 74 74 88 100 110 110 119 120 108 99 99 73 50 39 39 34 28 27 27 27 30 30 34 35 35 35 35
0 nan nan nan nan nan nan nan nan nan nan nan nan nan nan nan nan nan nan nan nan nan nan nan nan nan nan 0 1 1 0 0 2 2 1 1 0 0 1 nan nan nan nan nan nan nan nan nan nan nan 1 23 25 25 34 48 48 54 61 75 75 86 99 110 110 113 108 92 75 75 51 39 32 32 30 25 26 26 30 34 34 33 36 36 36 35
0 nan nan nan nan nan nan nan nan nan nan nan nan nan nan nan nan nan nan nan nan nan nan nan nan nan 0 nan 0 0 0 0 2 2 1 1 1 1 1 1 1 0 nan 0 0 0 0 1 1 7 17 25 27 27 33 41 41 51 60 71 71 80 97 98 98 99 90 68 56 56 40 33 29 29 24 25 30 30 32 35 35 35 36 38 38 35
nan nan 0 nan nan nan nan nan nan nan nan nan nan nan nan nan nan nan nan nan nan nan nan nan nan nan 0 nan nan nan nan nan 0 0 1 2 2 2 2 2 2 1 0 1 1 2 2 2 2 7 24 27 29 29 30 36 36 46 59 68 68 77 82 83 83 74 64 51 39 39 31 29 25 25 24 28 33 33 35 37 37 37 38 40 40 38
nan nan nan nan nan nan nan nan nan nan nan nan nan nan nan nan nan nan nan nan nan nan nan nan nan nan nan nan nan nan 0 nan 0 0 1 1 1 1 2 1 1 1 1 0 0 1 1 1 1 0 11 24 27 27 30 31 31 41 53 62 62 68 70 67 67 56 44 32 29 29 25 24 23 23 28 34 37 37 37 38 38 36 37 40 40 39
nan nan nan nan nan nan nan nan nan nan nan nan nan nan nan nan nan nan nan nan nan nan 0 nan nan nan nan nan 0 0 0 nan nan nan nan 0 2 2 4 2 2 0 1 1 1 0 0 0 0 nan 8 22 26 26 28 29 29 36 46 53 53 61 58 48 48 38 31 24 23 23 22 23 26 26 31 38 38 38 34 39 39 41 41 45 45 43
nan nan nan nan nan nan nan nan nan nan nan nan nan nan nan nan nan nan nan nan nan nan nan nan nan nan nan 0 0 0 0 nan 0 0 nan 0 3 3 4 3 3 0 1 2 2 1 0 0 0 0 6 23 23 23 26 30 30 34 42 47 47 48 45 39 39 28 22 19 20 20 24 27 34 34 36 41 40 40 41 42 42 43 45 45 45 41
nan nan nan nan nan nan nan nan nan nan nan nan nan nan nan nan nan nan nan nan nan nan nan nan nan nan nan 0 nan nan 0 0 1 1 0 1 2 2 4 3 3 3 4 3 3 1 0 1 1 0 2 15 19 19 23 27 27 31 39 40 40 42 38 31 31 25 22 21 24 24 29 35 39 39 41 43 42 42 43 45 45 45 46 45 45 44
nan nan nan nan nan nan nan nan nan nan nan nan nan nan nan nan nan nan nan nan nan nan nan nan nan nan nan 3 nan nan 0 1 1 1 1 1 1 1 3 4 4 6 6 3 3 1 1 1 1 1 1 5 13 13 20 25 25 29 35 35 35 37 33 30 30 25 24 24 29 29 33 39 41 41 42 43 43 43 44 45 45 46 48 45 45 41
2 0 nan nan nan 4 9 9 11 11 2 nan nan nan nan nan nan nan nan nan nan nan nan nan nan nan nan nan 0 0 nan 1 1 1 1 0 1 1 2 6 6 6 6 5 5 3 1 1 1 0 nan 0 8 8 12 20 20 27 32 35 35 34 32 30 30 27 25 30 35 35 41 42 44 44 44 44 42 42 42 45 45 46 46 43 43 42
61 60 44 19 19 19 23 27 30 30 34 15 nan nan nan nan nan nan nan nan nan nan nan nan nan nan nan nan nan nan nan 0 0 0 0 1 1 1 1 4 4 4 5 4 4 3 1 0 0 nan nan nan nan nan 6 13 13 22 30 32 32 35 33 34 34 33 34 37 41 41 45 46 45 45 44 42 41 41 45 45 45 46 44 42 42 42
88 104 111 92 92 56 37 41 50 50 56 53 37 37 5 nan nan nan nan 0 0 nan nan nan nan 0 nan nan nan nan nan 0 nan nan 0 1 0 0 1 3 3 4 4 3 3 5 6 1 1 nan nan nan nan nan 0 6 6 15 26 31 31 37 38 37 37 35 36 41 43 43 44 45 44 44 44 43 44 44 44 46 46 44 41 34 34 19
57 79 109 130 130 117 89 70 74 74 77 86 76 76 19 nan nan nan 0 nan nan nan nan 0 0 0 nan nan nan nan nan nan 0 0 1 1 1 1 1 2 2 3 4 2 2 6 6 2 2 0 nan nan nan nan nan 0 0 8 23 30 30 36 35 35 35 37 39 38 41 41 42 43 42 42 43 44 44 44 44 44 44 44 37 29 29 20
7 14 40 73 73 106 106 66 85 85 101 100 101 101 35 nan nan nan nan nan nan nan nan 0 0 0 nan nan nan nan nan nan nan nan 0 0 1 1 1 1 1 3 2 2 2 3 3 4 4 1 nan nan nan nan nan nan nan 0 7 23 23 26 28 31 31 33 36 38 41 41 40 42 41 41 41 42 44 44 44 41 41 36 23 17 17 15
nan nan 0 4 4 8 19 7 43 43 100 126 120 120 64 0 nan nan nan nan nan nan nan 0 0 nan nan nan nan nan nan 1 0 0 nan 0 0 0 1 1 1 2 2 1 1 1 2 2 2 2 0 nan nan nan nan nan nan nan nan 3 3 12 22 25 25 27 30 34 35 35 37 37 38 38 37 41 41 41 40 40 40 32 17 13 13 12
nan nan nan nan nan nan nan nan nan nan 0 2 13 13 46 20 nan nan nan nan nan nan nan nan nan nan nan nan 0 0 0 nan 4 4 0 nan nan nan 0 2 2 1 1 2 2 1 0 1 1 0 nan nan nan nan nan nan nan nan nan nan nan nan nan 2 2 8 12 22 26 26 26 27 30 30 31 33 34 34 33 31 31 30 18 15 15 20
nan nan nan nan nan nan nan nan nan nan nan nan 0 0 1 3 3 3 nan nan nan nan nan nan nan nan nan nan nan nan 0 nan 5 5 6 nan 1 1 0 0 0 1 1 0 0 1 1 1 1 nan nan nan nan nan nan nan nan nan nan nan nan nan nan nan nan nan 2 6 10 10 19 20 24 24 23 26 26 26 28 28 28 30 31 16 16 21
nan nan nan nan nan nan nan nan nan nan nan nan 1 1 2 0 1 1 0 nan nan nan nan nan nan nan nan nan nan nan nan nan 3 3 10 nan 0 0 0 1 1 nan 0 nan nan 0 1 2 2 0 nan nan nan nan nan nan nan nan nan nan nan nan nan nan nan nan nan nan nan nan 1 2 10 10 10 13 14 14 20 22 22 27 28 23 23 15
nan nan nan nan nan nan nan nan nan nan nan nan nan nan 0 1 1 1 1 nan nan nan nan nan nan nan nan nan nan nan nan nan 3 3 11 nan nan nan 0 0 0 nan 0 nan nan nan 0 1 1 2 1 nan nan nan nan nan nan nan nan nan nan nan nan nan nan nan nan nan nan nan nan nan nan nan 0 1 5 5 9 13 13 17 22 26 26 19
nan nan nan nan nan nan nan 0 nan nan nan nan nan nan nan nan nan nan nan nan nan nan 0 nan nan nan nan nan nan nan nan nan 0 0 9 nan nan nan 1 1 1 1 1 0 0 nan 0 1 1 3 4 1 nan nan nan nan nan nan nan nan nan nan nan nan nan nan nan nan nan nan nan nan nan nan nan 0 2 2 5 8 8 10 14 18 18 21
nan nan nan nan nan nan nan nan nan nan nan nan nan nan nan nan nan nan nan 2 2 0 0 1 1 0 2 nan nan nan nan nan nan nan 3 1 nan nan 1 3 3 3 0 nan nan nan 0 1 1 1 2 2 nan nan nan nan nan nan nan nan nan nan nan nan nan nan nan nan nan nan nan nan nan nan nan 0 1 1 4 7 7 9 12 15 15 20
nan nan nan nan nan nan nan nan nan nan nan nan nan nan nan nan nan nan nan 1 1 3 nan nan nan nan 4 6 nan nan nan nan nan nan nan 0 nan nan nan 1 1 3 0 nan nan nan nan 1 1 1 1 0 0 0 0 nan nan nan nan nan nan nan nan nan nan nan nan nan nan nan nan nan nan nan nan nan nan nan nan nan nan 3 7 10 10 18
nan nan nan nan nan nan nan nan nan nan nan nan nan nan nan nan nan nan nan 0 0 4 4 nan nan nan nan 2 5 5 2 nan nan nan nan nan 0 0 nan nan nan nan 0 nan nan nan nan nan nan 0 0 0 nan nan nan nan nan nan nan nan nan nan nan nan nan nan nan nan nan nan nan nan nan nan nan nan nan nan nan nan nan nan 0 0 0 5
nan nan nan nan nan nan nan nan nan nan nan nan nan nan nan nan nan nan 0 0 0 3 6 4 4 0 1 5 9 9 9 1 2 2 nan nan 1 1 nan nan nan nan nan nan nan nan nan nan nan 0 0 nan nan nan nan nan nan nan 1 nan nan nan nan nan nan nan nan nan nan nan nan nan nan nan nan nan nan nan nan nan nan nan nan nan nan nan
nan nan nan nan nan nan nan nan nan nan nan nan nan nan nan nan nan nan 0 1 1 2 3 8 8 4 0 2 1 1 6 5 11 11 nan nan 3 3 1 nan nan nan nan nan nan nan nan nan nan 0 0 nan nan nan nan nan nan 1 3 0 0 nan nan nan nan nan nan nan nan nan nan nan 0 0 nan nan nan nan nan nan nan nan nan nan nan nan
0 nan nan nan nan nan nan nan nan nan nan nan 0 0 0 0 nan nan 0 1 1 1 1 1 1 2 0 0 1 1 3 6 8 8 1 nan 0 0 3 1 1 0 nan nan nan nan 0 0 0 1 0 nan nan nan nan nan nan 0 2 0 0 nan 0 1 1 nan nan nan nan nan 1 0 nan nan 0 nan nan nan nan nan nan nan nan nan nan nan
2 nan nan nan nan nan nan nan nan nan nan nan 0 0 0 0 1 1 1 0 0 0 0 nan nan 2 1 1 1 1 4 6 12 12 7 nan 0 0 6 4 4 1 nan nan nan nan 0 1 1 0 0 0 0 0 nan nan nan nan 1 1 1 0 nan nan nan 0 0 0 0 0 0 0 0 0 0 1 0 0 0 1 1 3 2 nan nan nan
9 nan nan nan nan nan nan nan nan nan nan nan 0 0 0 0 1 1 1 0 0 1 nan nan nan 0 0 1 2 2 1 1 4 4 13 16 0 0 3 1 1 1 nan nan nan nan 0 1 1 0 0 0 nan nan 0 nan nan nan nan 0 0 1 nan nan nan 0 1 2 1 1 2 1 1 1 1 1 1 1 1 0 0 nan 0 nan nan nan
13 0 nan nan nan nan nan nan 0 0 nan nan nan nan 0 1 2 2 1 0 0 0 0 nan nan nan 0 1 3 3 0 nan nan nan nan 26 45 45 8 nan nan nan nan nan nan nan nan nan nan 0 0 nan nan nan 0 nan nan nan 0 1 1 1 0 0 0 0 2 1 1 1 3 4 3 3 2 1 0 0 0 0 0 0 nan nan nan nan
17 3 nan nan nan nan nan nan 0 0 nan nan 0 0 0 0 0 0 2 0 0 0 0 1 1 0 nan 2 2 2 0 0 nan nan nan nan 6 6 9 0 0 nan nan nan nan nan nan nan nan nan nan nan 0 0 1 0 0 nan nan 0 0 1 1 1 1 1 3 2 1 1 3 5 3 3 2 1 1 1 0 1 1 0 0 nan nan nan
9 5 nan nan nan nan nan nan nan nan nan nan nan nan nan nan nan nan 0 0 0 0 0 0 0 1 0 0 0 0 nan 0 0 0 nan nan 0 0 0 0 0 2 nan nan nan nan nan nan nan nan nan nan 1 1 1 0 0 nan nan nan nan 0 0 0 0 1 2 2 1 1 4 6 3 3 3 2 1 1 1 1 1 0 0 nan nan nan
11 10 2 nan nan nan nan nan nan nan nan 0 nan nan nan nan nan nan nan 0 0 2 3 1 1 0 2 1 nan nan nan 0 1 1 0 nan 1 1 0 nan nan 0 0 0 0 1 0 0 0 nan nan 0 0 0 0 0 0 nan nan nan nan nan 0 0 0 0 2 3 6 6 7 3 2 2 3 1 1 1 1 0 0 0 0 0 0 nan
7 11 8 nan nan nan nan nan nan nan nan nan 0 0 nan nan 6 6 nan nan nan 1 1 2 2 2 1 nan 0 0 2 1 nan nan 1 0 nan nan 0 nan nan nan nan 1 1 1 2 2 2 1 nan 1 1 1 0 0 0 0 nan nan nan nan nan 1 1 1 1 2 10 10 7 1 1 1 2 1 2 2 1 0 0 0 1 0 0 0
9 11 12 2 2 nan nan nan nan nan nan nan nan nan nan nan 0 0 0 nan nan 0 0 1 1 0 1 0 0 0 1 1 1 1 2 1 nan nan nan nan nan nan nan nan nan 0 1 1 1 6 11 6 1 1 nan nan nan 0 nan nan nan nan 0 2 2 1 nan 1 10 10 8 2 2 2 1 0 1 1 1 0 0 0 1 1 1 1
11 10 11 9 9 2 nan 0 nan nan nan nan nan nan nan nan nan nan 0 1 1 1 1 1 1 0 0 0 0 0 1 nan 2 2 4 2 nan nan nan nan nan nan nan nan nan nan nan nan nan 1 13 28 10 10 nan nan nan nan nan nan nan nan 1 2 2 1 1 nan 3 3 10 7 3 3 0 0 1 1 0 1 1 1 1 1 1 2
CIN
nan nan nan nan nan nan nan nan nan nan nan nan nan nan nan nan nan nan nan nan nan nan nan nan nan nan nan nan nan nan -0 -0 -0 -0 -0 -0 -0 -0 -0 -0 -0 -0 -0 -0 -0 -0 -0 -0 -0 -0 -0 -0 -0 -0 -0 -0 -0 -0 -0 -0 -0 -0 -0 -0 -0 -0 -0 -0 -0 -0 -0 -0 -0 -0 -0 -0 -0 -0 -0 -0 -0 -0 -0 -0 -0 -0
nan nan nan nan nan nan nan nan nan nan nan nan nan nan nan nan nan nan nan nan nan nan nan nan nan nan nan nan nan nan nan -0 -0 -0 -0 -0 -0 -0 -0 -0 -0 -0 -0 -0 -0 -0 -0 -0 -0 -0 -0 -0 -0 -0 -0 -0 -0 -0 -0 -0 -0 -0 -0 -0 -0 -0 -0 -0 -0 -0 -0 -0 -0 -0 -0 -0 -0 -0 -0 -0 -0 -0 -0 -0 -0 -0
nan nan nan nan nan nan nan nan nan nan nan nan nan nan nan nan nan nan nan nan nan nan nan nan nan nan nan nan nan nan nan -0 -0 -0 -0 -0 -0 -0 -0 -0 -0 -0 -0 -0 -0 -0 -0 -0 -0 -0 -0 -0 -0 -0 -0 -0 -0 -0 -0 -0 -0 -0 -0 -0 -0 -0 -0 -0 -0 -0 -0 -0 -0 -0 -0 -0 -0 -0 -0 -0 -0 -0 -0 -0 -0 -0
nan nan nan nan nan nan nan nan nan nan nan nan nan nan nan nan nan nan nan nan nan nan nan nan nan nan nan nan nan nan nan nan -0 -0 -0 -0 -0 -0 -0 -0 -0 -0 -0 -0 -0 -0 -0 -0 -0 -0 -0 -0 -0 -0 -0 -0 -0 -0 -0 -0 -0 -0 -0 -0 -0 -0 -0 -0 -0 -0 -0 -0 -0 -0 -0 -0 -0 -0 -0 -0 -0 -0 -0 -0 -0 -0
nan nan nan nan nan nan nan nan nan nan nan nan nan nan nan nan nan nan nan nan nan nan nan nan nan nan nan nan nan nan nan nan -0 -0 -0 -0 -0 -0 -0 -0 -0 -0 -0 -0 -0 -0 -0 -0 -0 -0 -0 -0 -0 -0 -0 -0 -0 -0 -0 -0 -0 -0 -0 -0 -0 -0 -0 -0 -0 -0 -0 -0 -0 -0 -0 -0 -0 -0 -0 -0 -0 -0 -0 -0 -0 -0
nan nan nan nan nan nan nan nan nan nan nan nan nan nan nan nan nan nan nan nan nan nan nan nan nan nan nan nan nan nan nan nan -0 -0 -0 -0 -0 -0 -0 -0 -0 -0 -0 -0 -0 -0 -0 -0 -0 -0 -0 -0 -0 -0 -0 -0 -0 -0 -0 -0 -0 -0 -0 -0 -0 -0 -0 -0 -0 -0 -0 -0 -0 -0 -0 -0 -0 -0 -0 -0 -0 -0 -0 -0 -0 -0
nan nan nan nan nan nan nan nan nan nan nan nan nan nan nan nan nan nan nan nan nan nan nan nan nan nan nan nan nan nan nan nan -0 -0 -0 -0 -0 -0 -0 -0 -0 -0 -0 -0 -0 -0 -0 -0 -0 -0 -0 -0 -0 -0 -0 -0 -0 -0 -0 -0 -0 -0 -0 -0 -0 -0 -0 -0 -0 -0 -0 -0 -0 -0 -0 -0 -0 -0 -0 -0 -0 -0 -0 -0 -0 -0
nan nan nan nan nan nan nan nan nan nan nan nan nan nan nan nan nan nan nan nan nan nan nan nan nan nan nan nan nan nan nan nan nan nan nan -0 -0 -0 -0 -0 -0 -0 -0 -0 -0 -0 -0 -0 -0 -0 -0 -0 -0 -0 -0 -0 -0 -0 -0 -0 -0 -0 -0 -0 -0 -0 -0 -0 -0 -0 -0 -0 -0 -0 -0 -0 -0 -0 -0 -0 -0 -0 -0 -0 -0 -0
nan nan nan nan nan nan nan nan nan nan nan nan nan nan nan nan nan nan nan nan nan nan nan nan nan nan nan nan nan nan nan nan nan nan nan nan nan nan -0 -0 -0 -0 -0 -0 -0 -0 -0 -0 -0 -0 -0 -0 -0 -0 -0 -0 -0 -0 -0 -0 -0 -0 -0 -0 -0 -0 -0 -0 -0 -0 -0 -0 -0 -0 -0 -0 -0 -0 -0 -0 -0 -0 -0 -0 -0 -0
nan nan nan nan nan nan nan nan -0 -0 -0 nan nan nan nan nan nan nan nan nan nan nan nan nan nan nan nan nan nan nan nan nan -0 -0 -0 -0 -0 -0 -0 -0 -0 -0 -0 -0 -0 -0 -0 -0 -0 -0 -0 -0 -0 -0 -0 -0 -0 -0 -0 -0 -0 -0 -0 -0 -0 -0 -0 -0 -0 -0 -0 -0 -0 -0 -0 -0 -0 -0 -0 -0 -0 -0 -0 -0 -0 -0
nan nan nan nan nan nan nan nan nan nan -0 nan nan nan nan nan nan nan nan nan nan nan nan nan nan nan nan nan -0 -0 -0 nan nan nan -0 -0 -0 -0 -0 -0 -0 -0 -0 -0 -0 -0 -0 -0 -0 -0 -0 -0 -0 -0 -0 -0 -0 -0 -0 -0 -0 -0 -0 -0 -0 -0 -0 -0 -0 -0 -0 -0 -0 -0 -0 -0 -0 -0 -0 -0 -0 -0 -0 -0 -0 -0
nan nan nan nan nan nan nan nan -0 -0 nan nan -0 -0 -0 -0 nan nan nan nan nan nan nan nan nan nan nan -0 -0 -0 -0 nan nan nan nan nan nan nan -0 -0 -0 -0 -0 -0 -0 -0 -0 -0 -0 -0 -0 -0 -0 -0 -0 -0 -0 -0 -0 -0 -0 -0 -0 -0 -0 -0 -0 -0 -0 -0 -0 -0 -0 -0 -0 -0 -0 -0 -0 -0 -0 -0 -0 -0 -0 -0
nan nan nan nan nan nan nan nan nan nan nan nan -0 -0 -0 -0 nan nan nan nan nan nan nan nan nan nan -0 -0 -0 -0 -0 -0 nan nan nan nan nan nan nan nan nan nan nan nan nan nan -0 -0 -0 -0 -0 -0 -0 -0 -0 -0 -0 -0 -0 -0 -0 -0 -0 -0 -0 -0 -0 -0 -0 -0 -0 -0 -0 -0 -0 -0 -0 -0 -0 -0 -0 -0 -0 -0 -0 -0
nan nan nan nan nan nan nan nan nan nan nan nan nan nan nan nan nan nan nan -0 -0 nan nan nan nan -0 -0 -0 -0 -0 -0 -0 -0 -0 nan nan nan nan nan nan nan nan nan nan nan nan -0 -0 -0 -0 -0 -0 -0 -0 -0 -0 -0 -0 -0 -0 -0 -0 -0 -0 -0 -0 -0 -0 -0 -0 -0 -0 -0 -0 -0 -0 -0 -0 -0 -0 -0 -0 -0 -0 -0 -0
nan nan nan nan nan nan nan nan nan nan nan nan nan nan nan nan nan nan nan nan nan nan nan -0 -0 -0 -0 nan -0 -0 -0 -0 -0 -0 nan nan nan nan nan nan nan nan nan nan nan nan nan nan nan nan -0 -0 -0 -0 -0 -0 -0 -0 -0 -0 -0 -0 -0 -0 -0 -0 -0 -0 -0 -0 -0 -0 -0 -0 -0 -0 -0 -0 -0 -0 -0 -0 -0 -0 -0 -0
nan nan nan nan nan nan nan nan nan nan nan nan nan nan nan nan nan nan nan nan nan nan nan -0 -0 -0 -0 -0 -1 -1 -0 -0 -0 -0 -0 -0 nan nan nan nan nan nan nan nan nan nan nan nan nan nan nan -0 -0 -0 -0 -0 -0 -0 -0 -0 -0 -0 -0 -0 -0 -0 -0 -0 -0 -0 -0 -0 -0 -0 -0 -0 -0 -0 -0 -0 -0 -0 -0 -0 -0 -0
nan nan nan nan nan nan nan nan nan nan nan nan nan nan nan nan nan nan nan nan nan nan nan nan nan -0 -0 -0 -0 -0 -0 -0 -0 -0 -0 -0 -0 -0 nan nan nan nan nan nan nan nan nan nan nan nan nan -0 -0 -0 -0 -0 -0 -0 -0 -0 -0 -0 -0 -0 -0 -0 -0 -0 -0 -0 -0 -0 -0 -0 -0 -0 -0 -0 -0 -0 -0 -0 -0 -0 -0 -0
-0 nan nan nan nan nan nan nan nan nan nan nan nan nan nan nan nan nan nan nan nan nan nan nan nan nan nan -0 -0 -0 -1 -0 -0 -0 -0 -0 -0 -0 -0 nan nan nan nan nan nan nan nan nan nan nan -0 -0 -0 -0 -0 -0 -0 -0 -0 -0 -0 -0 -0 -0 -0 -0 -0 -0 -0 -0 -0 -0 -0 -0 -0 -0 -0 -0 -0 -0 -0 -0 -0 -0 -0 -0
-0 nan nan nan nan nan nan nan nan nan nan nan nan nan nan nan nan nan nan nan nan nan nan nan nan nan -0 nan -0 -0 -2 -0 -0 -0 -0 -0 -0 -0 -0 -0 -0 -0 nan -0 -0 -0 -0 -0 -0 -0 -0 -0 -0 -0 -0 -0 -0 -0 -0 -0 -0 -0 -0 -0 -0 -0 -0 -0 -0 -0 -0 -0 -0 -0 -0 -0 -0 -0 -0 -0 -0 -0 -0 -0 -0 -0
nan nan -0 nan nan nan nan nan nan nan nan nan nan nan nan nan nan nan nan nan nan nan nan nan nan nan -0 nan nan nan nan nan -0 -0 -0 -0 -0 -0 -0 -0 -0 -0 -0 -0 -0 -0 -0 -0 -0 -0 -0 -0 -0 -0 -0 -0 -0 -0 -0 -0 -0 -0 -0 -0 -0 -0 -0 -0 -0 -0 -0 -0 -0 -0 -0 -0 -0 -0 -0 -0 -0 -0 -0 -0 -0 -0
nan nan nan nan nan nan nan nan nan nan nan nan nan nan nan nan nan nan nan nan nan nan nan nan nan nan nan nan nan nan -0 nan -0 -0 -0 -0 -0 -0 -0 -0 -0 -0 -0 -0 -0 -0 -0 -0 -0 -0 -0 -0 -0 -0 -0 -0 -0 -0 -0 -0 -0 -0 -0 -0 -0 -0 -0 -0 -0 -0 -0 -0 -0 -0 -0 -0 -0 -0 -0 -0 -0 -0 -0 -0 -0 -0
nan nan nan nan nan nan nan nan nan nan nan nan nan nan nan nan nan nan nan nan nan nan -0 nan nan nan nan nan -0 -0 -0 nan nan nan nan -0 -0 -0 -0 -0 -0 -0 -0 -0 -0 -0 -0 -0 -0 nan -0 -0 -0 -0 -0 -0 -0 -0 -0 -0 -0 -0 -0 -0 -0 -0 -0 -0 -0 -0 -0 -0 -0 -0 -0 -0 -0 -0 -0 -0 -0 -0 -0 -0 -0 -0
nan nan nan nan nan nan nan nan nan nan nan nan nan nan nan nan nan nan nan nan nan nan nan nan nan nan nan -0 -0 -0 -0 nan -0 -0 nan -0 -0 -0 -0 -0 -0 -0 -0 -0 -0 -0 -0 -0 -0 -0 -0 -0 -0 -0 -0 -0 -0 -0 -0 -0 -0 -0 -0 -0 -0 -0 -0 -0 -0 -0 -0 -0 -0 -0 -0 -0 -0 -0 -0 -0 -0 -0 -0 -0 -0 -0
nan nan nan nan nan nan nan nan nan nan nan nan nan nan nan nan nan nan nan nan nan nan nan nan nan nan nan -0 nan nan -0 -1 -0 -0 -0 -0 -0 -0 -0 -0 -0 -0 -0 -0 -0 -0 -0 -0 -0 -0 -0 -0 -0 -0 -0 -0 -0 -0 -0 -0 -0 -0 -0 -0 -0 -0 -0 -0 -0 -0 -0 -0 -0 -0 -0 -0 -0 -0 -0 -0 -0 -0 -0 -0 -0 -0
nan nan nan nan nan nan nan nan nan nan nan nan nan nan nan nan nan nan nan nan nan nan nan nan nan nan nan -0 nan nan -0 -0 -0 -0 -0 -0 -0 -0 -0 -0 -0 -0 -0 -0 -0 -0 -0 -0 -0 -0 -0 -0 -0 -0 -0 -0 -0 -0 -0 -0 -0 -0 -0 -0 -0 -0 -0 -0 -0 -0 -0 -0 -0 -0 -0 -0 -0 -0 -0 -0 -0 -0 -0 -0 -0 -0
-2 -2 nan nan nan -0 -0 -0 -0 -0 -0 nan nan nan nan nan nan nan nan nan nan nan nan nan nan nan nan nan -0 -0 nan -0 -0 -0 -0 -0 -0 -0 -0 -0 -0 -0 -0 -0 -0 -0 -0 -0 -0 -0 nan -0 -0 -0 -0 -0 -0 -0 -0 -0 -0 -0 -0 -0 -0 -0 -0 -0 -0 -0 -0 -0 -0 -0 -0 -0 -0 -0 -0 -0 -0 -0 -0 -0 -0 -0
-0 -0 -0 -0 -0 -0 -0 -0 -0 -0 -0 -0 nan nan nan nan nan nan nan nan nan nan nan nan nan nan nan nan nan nan nan -0 -1 -1 -0 -0 -0 -0 -0 -0 -0 -0 -0 -0 -0 -0 -0 -0 -0 nan nan nan nan nan -0 -0 -0 -0 -0 -0 -0 -0 -0 -0 -0 -0 -0 -0 -0 -0 -0 -0 -0 -0 -0 -0 -0 -0 -0 -0 -0 -0 -0 -0 -0 -0
-0 -0 -0 -0 -0 -0 -0 -0 -0 -0 -0 -0 -0 -0 -0 nan nan nan nan -0 -0 nan nan nan nan -0 nan nan nan nan nan -0 nan nan -1 -0 -0 -0 -0 -0 -0 -0 -0 -0 -0 -0 -0 -0 -0 nan nan nan nan nan -0 -0 -0 -0 -0 -0 -0 -0 -0 -0 -0 -0 -0 -0 -0 -0 -0 -0 -0 -0 -0 -0 -0 -0 -0 -0 -0 -0 -0 -0 -0 -0
-0 -0 -0 -0 -0 -0 -0 -0 -0 -0 -0 -0 -0 -0 -0 nan nan nan -0 nan nan nan nan -0 -0 -0 nan nan nan nan nan nan -1 -1 -1 -0 -0 -0 -0 -0 -0 -0 -0 -0 -0 -0 -0 -0 -0 -0 nan nan nan nan nan -0 -0 -0 -0 -0 -0 -0 -0 -0 -0 -0 -0 -0 -0 -0 -0 -0 -0 -0 -0 -0 -0 -0 -0 -0 -0 -0 -0 -0 -0 -0
-0 -0 -0 -0 -0 -0 -0 -0 -0 -0 -0 -0 -0 -0 -0 nan nan nan nan nan nan nan nan -0 -0 -0 nan nan nan nan nan nan nan nan -0 -0 -0 -0 -0 -0 -0 -0 -0 -0 -0 -0 -0 -0 -0 -0 nan nan nan nan nan nan nan -0 -0 -0 -0 -0 -0 -0 -0 -0 -0 -0 -0 -0 -0 -0 -0 -0 -0 -0 -0 -0 -0 -0 -0 -0 -0 -0 -0 -0
nan nan -1 -0 -0 -0 -1 -1 -0 -0 -0 -0 -0 -0 -0 -2 nan nan nan nan nan nan nan -0 -0 nan nan nan nan nan nan -0 -2 -2 nan -0 -0 -0 -0 -0 -0 -0 -0 -0 -0 -0 -0 -0 -0 -0 -0 nan nan nan nan nan nan nan nan -0 -0 -0 -0 -0 -0 -0 -0 -0 -0 -0 -0 -0 -0 -0 -0 -0 -0 -0 -0 -0 -0 -0 -0 -0 -0 -0
nan nan nan nan nan nan nan nan nan nan -1 -1 -0 -0 -0 -0 nan nan nan nan nan nan nan nan nan nan nan nan -0 -0 -0 nan -0 -0 -2 nan nan nan -0 -0 -0 -0 -0 -0 -0 -0 -0 -0 -0 -0 nan nan nan nan nan nan nan nan nan nan nan nan nan -0 -0 -0 -0 -0 -0 -0 -0 -0 -0 -0 -0 -0 -0 -0 -0 -0 -0 -0 -0 -0 -0 -0
nan nan nan nan nan nan nan nan nan nan nan nan -2 -2 -2 -0 -0 -0 nan nan nan nan nan nan nan nan nan nan nan nan -0 nan -1 -1 -0 nan -0 -0 -0 -0 -0 -0 -0 -0 -0 -0 -0 -0 -0 nan nan nan nan nan nan nan nan nan nan nan nan nan nan nan nan nan -0 -0 -0 -0 -0 -0 -0 -0 -0 -0 -0 -0 -0 -0 -0 -0 -0 -0 -0 -0
nan nan nan nan nan nan nan nan nan nan nan nan -0 -0 -2 -2 -0 -0 -0 nan nan nan nan nan nan nan nan nan nan nan nan nan -1 -1 -0 nan -0 -0 -0 -0 -0 nan -0 nan nan -0 -0 -0 -0 -0 nan nan nan nan nan nan nan nan nan nan nan nan nan nan nan nan nan nan nan nan -0 -0 -0 -0 -0 -0 -0 -0 -0 -0 -0 -0 -0 -0 -0 -0
nan nan nan nan nan nan nan nan nan nan nan nan nan nan -0 -3 -2 -2 -0 nan nan nan nan nan nan nan nan nan nan nan nan nan -1 -1 -0 nan nan nan -1 -1 -1 nan -0 nan nan nan -0 -0 -0 -0 -0 nan nan nan nan nan nan nan nan nan nan nan nan nan nan nan nan nan nan nan nan nan nan nan -0 -0 -0 -0 -0 -0 -0 -0 -0 -0 -0 -0
nan nan nan nan nan nan nan -0 nan nan nan nan nan nan nan nan nan nan nan nan nan nan -0 nan nan nan nan nan nan nan nan nan -7 -7 -0 nan nan nan -0 -0 -0 -0 -0 -0 -0 nan -0 -0 -0 -0 -0 -0 nan nan nan nan nan nan nan nan nan nan nan nan nan nan nan nan nan nan nan nan nan nan nan -0 -0 -0 -0 -0 -0 -0 -0 -0 -0 -0
nan nan nan nan nan nan nan nan nan nan nan nan nan nan nan nan nan nan nan -1 -1 -1 -0 -0 -0 -0 -1 nan nan nan nan nan nan nan -7 -7 nan nan -0 -0 -0 -0 -0 nan nan nan -0 -0 -0 -0 -0 -0 nan nan nan nan nan nan nan nan nan nan nan nan nan nan nan nan nan nan nan nan nan nan nan -0 -0 -0 -0 -0 -0 -0 -0 -0 -0 -0
nan nan nan nan nan nan nan nan nan nan nan nan nan nan nan nan nan nan nan -2 -2 -1 nan nan nan nan -2 -3 nan nan nan nan nan nan nan -11 nan nan nan -0 -0 -0 -0 nan nan nan nan -0 -0 -0 -0 -0 -0 -0 -0 nan nan nan nan nan nan nan nan nan nan nan nan nan nan nan nan nan nan nan nan nan nan nan nan nan nan -0 -0 -0 -0 -0
nan nan nan nan nan nan nan nan nan nan nan nan nan nan nan nan nan nan nan -2 -2 -0 -0 nan nan nan nan -4 -4 -4 -10 nan nan nan nan nan -6 -6 nan nan nan nan -2 nan nan nan nan nan nan -0 -0 -0 nan nan nan nan nan nan nan nan nan nan nan nan nan nan nan nan nan nan nan nan nan nan nan nan nan nan nan nan nan nan -0 -0 -0 -0
nan nan nan nan nan nan nan nan nan nan nan nan nan nan nan nan nan nan -1 -0 -0 -0 -0 -0 -0 -0 -0 -0 -0 -0 -1 -8 -8 -8 nan nan -8 -8 nan nan nan nan nan nan nan nan nan nan nan -0 -0 nan nan nan nan nan nan nan -0 nan nan nan nan nan nan nan nan nan nan nan nan nan nan nan nan nan nan nan nan nan nan nan nan nan nan nan
nan nan nan nan nan nan nan nan nan nan nan nan nan nan nan nan nan nan -0 -0 -0 -0 -0 -0 -0 -0 -0 -0 -0 -0 -0 -3 -1 -1 nan nan -5 -5 -4 nan nan nan nan nan nan nan nan nan nan -0 -0 nan nan nan nan nan nan -0 -0 -0 -0 nan nan nan nan nan nan nan nan nan nan nan -0 -0 nan nan nan nan nan nan nan nan nan nan nan nan
-0 nan nan nan nan nan nan nan nan nan nan nan -0 -0 -0 -0 nan nan -0 -0 -0 -0 -0 -0 -0 -0 -0 -0 -0 -0 -0 -1 -2 -2 -4 nan -4 -4 -2 -0 -0 -1 nan nan nan nan -0 -0 -0 -0 -0 nan nan nan nan nan nan -0 -0 -0 -0 nan -0 -0 -0 nan nan nan nan nan -0 -0 nan nan -0 nan nan nan nan nan nan nan nan nan nan nan
-1 nan nan nan nan nan nan nan nan nan nan nan -0 -0 -0 -0 -0 -0 -0 -0 -0 -0 -1 nan nan -0 -0 -0 -0 -0 -0 -1 -1 -1 -2 nan -3 -3 -0 -0 -0 -0 nan nan nan nan -0 -0 -0 -0 -0 -0 -0 -0 nan nan nan nan -0 -0 -0 -0 nan nan nan -0 -0 -0 -0 -0 -0 -0 -0 -0 -0 -0 -0 -0 -0 -0 -0 -0 -0 nan nan nan
-2 nan nan nan nan nan nan nan nan nan nan nan -0 -0 -0 -0 -0 -0 -0 -0 -0 -0 nan nan nan -0 -0 -0 -0 -0 -1 -2 -2 -2 -1 -0 -3 -3 -1 -1 -1 -1 nan nan nan nan -0 -0 -0 -0 -0 -0 nan nan -0 nan nan nan nan -0 -0 -0 nan nan nan -0 -0 -0 -0 -0 -0 -0 -0 -0 -0 -0 -0 -0 -0 -0 -0 nan -0 nan nan nan
-2 -8 nan nan nan nan nan nan -0 -0 nan nan nan nan -0 -0 -0 -0 -0 -0 -0 -0 -0 nan nan nan -0 -0 -0 -0 -1 nan nan nan nan -0 -0 -0 -0 nan nan nan nan nan nan nan nan nan nan -0 -0 nan nan nan -0 nan nan nan -0 -0 -0 -0 -0 -0 -0 -0 -0 -0 -0 -0 -0 -0 -0 -0 -0 -0 -0 -0 -0 -0 -0 -0 nan nan nan nan
-1 -3 nan nan nan nan nan nan -0 -0 nan nan -0 -0 -0 -0 -0 -0 -0 -0 -0 -0 -0 -0 -0 -0 nan -0 -0 -0 -1 -1 nan nan nan nan -0 -0 -0 -1 -1 nan nan nan nan nan nan nan nan nan nan nan -0 -0 -0 -0 -0 nan nan -0 -0 -0 -0 -0 -0 -0 -0 -0 -0 -0 -0 -0 -0 -0 -0 -0 -0 -0 -0 -0 -0 -0 -0 nan nan nan
-1 -2 nan nan nan nan nan nan nan nan nan nan nan nan nan nan nan nan -0 -0 -0 -0 -0 -0 -0 -0 -0 -0 -1 -1 nan -1 -1 -1 nan nan -0 -0 -0 -0 -0 -0 nan nan nan nan nan nan nan nan nan nan -0 -0 -0 -0 -0 nan nan nan nan -0 -0 -0 -0 -0 -0 -0 -0 -0 -0 -0 -0 -0 -0 -0 -0 -0 -0 -0 -0 -0 -0 nan nan nan
-0 -1 -3 nan nan nan nan nan nan nan nan -0 nan nan nan nan nan nan nan -0 -0 -0 -0 -0 -0 -0 -0 -0 nan nan nan -1 -0 -0 -0 nan -0 -0 -0 nan nan -0 -0 -1 -1 -0 -0 -2 -2 nan nan -0 -0 -0 -0 -0 -0 nan nan nan nan nan -0 -0 -0 -0 -0 -0 -0 -0 -0 -0 -0 -0 -0 -0 -0 -0 -0 -0 -0 -0 -0 -0 -0 nan
-0 -0 -2 nan nan nan nan nan nan nan nan nan -0 -0 nan nan -0 -0 nan nan nan -0 -0 -0 -0 -0 -0 nan -0 -0 -0 -0 nan nan -0 -1 nan nan -0 nan nan nan nan -0 -0 -0 -0 -0 -0 -0 nan -0 -0 -0 -0 -0 -0 -0 nan nan nan nan nan -0 -0 -0 -0 -0 -2 -2 -2 -0 -0 -0 -0 -0 -0 -0 -0 -0 -0 -0 -0 -0 -0 -0
-0 -0 -1 -2 -2 nan nan nan nan nan nan nan nan nan nan nan -0 -0 -0 nan nan -0 -0 -0 -0 -0 -0 -0 -0 -0 -0 -0 -0 -0 -0 -1 nan nan nan nan nan nan nan nan nan -0 -0 -0 -0 -0 -0 -0 -0 -0 nan nan nan -0 nan nan nan nan -0 -0 -0 -0 nan -0 -1 -1 -3 -0 -0 -0 -0 -0 -0 -0 -0 -0 -0 -0 -0 -0 -0 -0
-0 -0 -0 -1 -1 -0 nan -1 nan nan nan nan nan nan nan nan nan nan -0 -0 -0 -0 -0 -0 -0 -0 -0 -0 -0 -0 -0 nan -0 -0 -0 -1 nan nan nan nan nan nan nan nan nan nan nan nan nan -0 -0 -0 -0 -0 nan nan nan nan nan nan nan nan -0 -0 -0 -0 -0 nan -1 -1 -2 -0 -0 -0 -0 -0 -0 -0 -0 -0 -0 -0 -0 -0 -0 -0
Wind_Speed
8 7 6 6 6 6 7 9 9 9 8 7 7 7 8 9 10 11 13 13 12 12 11 11 11 12 14 17 20 22 24 24 25 26 26 26 27 27 28 28 28 27 27 27 27 26 26 25 25 24 24 24 24 24 24 24 23 23 23 23 23 23 24 24 24 24 24 24 24 24 24 25 25 25 25 24 24 23 22 21 20 19 19 19 19 19
8 8 7 8 9 9 8 9 10 10 9 9 8 8 8 9 9 9 9 11 12 11 10 11 11 12 13 15 18 21 22 24 25 25 26 26 27 27 27 28 28 28 27 27 27 26 26 25 25 25 24 24 24 24 24 23 23 23 23 23 23 23 23 24 24 24 24 24 25 24 25 25 25 25 24 24 23 22 21 20 19 19 19 19 19 19
9 8 8 8 9 10 9 10 10 10 11 10 10 9 10 10 9 8 8 9 10 10 10 10 10 11 13 13 16 19 21 23 24 25 25 26 26 27 27 28 28 28 28 27 27 26 26 26 25 25 25 24 24 24 24 23 23 23 22 23 23 23 23 23 23 24 24 24 24 24 24 24 24 24 23 22 21 20 20 19 19 19 19 19 19 20
9 9 8 7 8 9 10 9 9 10 10 10 10 11 12 11 9 8 8 8 8 9 10 11 11 10 10 11 13 17 20 22 23 24 25 25 26 26 27 27 28 28 28 27 27 26 26 26 25 25 25 24 24 24 23 23 22 22 22 22 23 23 23 23 23 24 24 24 24 24 24 24 24 23 22 21 20 20 19 19 19 19 19 20 20 20
10 9 8 6 7 8 9 9 9 9 8 9 9 10 11 10 9 8 8 9 9 9 9 10 10 10 9 9 11 15 19 21 23 24 25 25 26 26 27 27 27 27 27 27 27 27 26 26 25 25 25 24 24 23 23 23 22 22 22 22 23 23 23 23 24 24 24 24 24 24 24 24 23 22 21 21 20 20 19 19 20 20 20 20 20 20
10 9 7 6 6 7 7 7 7 7 7 8 8 9 9 8 8 8 8 8 9 9 8 8 9 10 10 9 11 14 17 20 21 23 24 25 25 26 27 27 27 27 27 27 27 26 26 26 25 25 24 24 24 23 23 23 22 22 22 23 23 23 24 24 24 24 24 24 24 24 24 23 23 22 21 21 20 20 20 20 20 20 20 21 21 21
9 8 7 6 6 6 6 6 6 7 7 7 7 7 8 8 8 8 8 8 8 8 7 8 9 9 10 11 12 13 15 17 19 21 23 24 25 26 27 27 27 27 27 27 27 26 26 25 25 24 24 24 23 23 23 23 23 23 23 23 23 24 24 24 25 25 25 25 25 24 24 23 23 22 22 21 21 21 20 20 20 20 21 21 21 21
10 8 7 7 6 6 5 6 6 7 7 6 6 7 7 7 7 8 8 8 8 7 7 7 8 9 9 10 11 11 11 13 14 16 18 20 22 24 25 27 27 27 28 27 27 26 26 25 25 24 24 24 23 23 23 23 23 23 24 24 24 24 25 25 25 26 26 25 25 24 24 23 23 22 22 22 21 21 21 20 20 20 20 21 21 21
11 10 8 8 7 6 6 6 6 7 7 7 7 7 7 7 7 7 7 8 8 7 6 7 8 8 9 9 9 9 10 11 11 11 13 14 15 18 21 23 25 26 27 27 27 26 26 25 25 24 24 24 24 23 23 23 24 24 24 24 25 25 25 26 26 26 26 26 25 24 24 23 23 22 22 22 21 21 20 20 20 20 20 20 20 21
11 10 9 8 7 7 6 6 6 6 7 7 7 7 7 7 7 7 7 8 7 6 6 7 8 8 8 8 8 9 10 11 13 14 15 15 15 16 18 18 19 21 24 25 25 26 26 25 25 25 25 24 24 24 24 24 24 25 25 25 25 26 26 26 26 26 26 25 25 24 24 23 23 22 22 22 21 21 20 20 20 20 20 20 20 21
10 9 8 7 7 6 6 6 5 5 6 6 6 7 7 7 7 7 8 8 7 6 6 7 8 8 8 8 8 8 9 9 11 13 15 17 18 18 19 19 18 19 21 22 23 24 25 25 25 25 25 25 24 24 24 24 25 25 25 26 26 26 26 26 26 26 26 25 25 24 24 23 23 22 22 21 21 20 20 19 19 19 20 20 20 21
8 7 7 6 6 5 5 5 5 4 5 5 6 6 7 7 7 7 8 8 8 7 7 7 7 7 8 7 7 7 8 8 8 9 10 12 13 15 15 16 16 17 18 19 21 22 23 24 25 25 25 24 24 24 24 24 25 26 26 26 26 27 27 26 26 26 25 25 25 24 24 23 23 22 22 21 21 20 19 19 19 19 20 20 21 21
7 6 5 6 6 6 5 5 5 5 5 6 7 7 7 7 7 7 8 8 8 7 6 6 6 7 8 7 7 7 7 8 8 8 7 8 9 9 9 10 11 11 12 13 14 16 19 22 23 23 24 24 24 24 25 25 25 26 27 27 27 27 27 26 26 25 25 25 24 24 24 23 23 22 22 21 20 20 19 19 20 20 20 21 21 21
7 7 6 7 7 6 6 6 6 6 7 7 7 8 7 6 6 7 7 8 7 7 6 6 7 7 6 7 7 7 7 7 7 7 7 8 8 8 8 8 8 8 9 9 10 12 14 16 17 18 21 22 23 24 24 25 26 27 27 27 27 27 26 26 25 25 25 24 24 24 23 23 22 22 21 20 20 19 19 20 20 20 21 21 21 21
8 7 8 8 8 7 6 7 7 8 8 7 7 7 6 6 6 7 7 7 7 6 6 7 7 7 6 6 6 6 7 7 7 7 8 8 8 8 8 8 8 8 8 8 9 10 12 12 12 12 15 19 20 21 22 23 25 27 27 27 27 26 26 25 25 25 24 24 24 23 23 23 22 21 20 20 19 19 20 20 20 21 21 21 21 21
8 8 9 9 9 8 7 7 7 8 8 7 7 6 7 7 7 7 7 7 6 5 6 6 7 6 6 6 6 6 7 7 7 7 8 7 7 7 8 8 8 8 8 8 9 9 9 10 10 11 12 16 19 21 23 23 25 26 27 27 27 26 26 25 25 25 24 24 24 23 23 22 21 20 20 20 20 20 20 21 21 21 21 21 22 22
9 9 9 9 9 9 8 7 8 8 7 7 7 7 7 7 7 7 7 6 5 5 5 6 6 5 4 4 6 7 7 7 7 7 7 8 7 7 8 8 8 9 8 9 9 9 8 9 9 10 11 15 18 21 22 23 24 26 26 26 26 26 26 26 25 25 24 24 23 23 22 21 21 20 20 20 20 20 21 21 21 21 22 22 22 22
9 9 9 10 9 9 8 8 7 7 7 7 7 7 7 7 7 7 7 6 6 6 6 6 5 5 4 4 4 6 8 8 7 7 7 8 7 7 7 8 8 9 9 9 9 9 9 9 10 10 11 16 19 21 22 23 24 25 26 26 26 26 26 25 25 24 24 23 23 22 22 21 20 20 20 20 21 21 21 22 22 22 22 22 22 22
10 9 9 9 9 8 8 8 8 7 7 7 7 7 7 7 7 7 7 7 7 7 7 7 6 6 6 5 4 5 7 7 7 7 7 7 7 6 7 7 8 8 9 9 9 9 9 9 11 14 16 18 20 22 23 24 24 25 25 26 26 26 25 25 24 23 23 23 22 22 21 21 21 21 21 21 21 22 22 22 22 22 22 22 22 22
10 10 9 9 8 8 9 9 8 8 8 8 8 7 7 7 7 7 8 8 8 7 7 7 7 7 7 7 6 5 6 7 7 7 7 7 6 6 7 7 8 8 8 8 8 8 9 9 11 13 17 20 21 23 24 24 25 25 25 25 25 25 24 24 23 22 22 22 21 21 21 21 21 21 22 22 22 22 22 22 22 22 22 22 22 22
10 11 10 8 8 8 8 8 9 9 10 9 8 8 8 7 8 8 8 8 8 8 8 8 8 8 7 7 6 5 6 7 7 6 5 5 5 6 6 7 7 8 8 8 8 8 8 9 9 10 14 18 21 23 24 24 25 25 25 25 25 24 24 23 22 22 22 21 21 21 22 22 22 22 22 23 23 23 22 22 22 22 22 22 22 22
10 10 10 10 9 9 8 8 9 10 11 10 9 8 8 8 8 9 9 8 9 9 9 9 9 8 7 7 6 5 6 7 7 6 4 5 6 6 5 6 7 8 8 8 7 8 8 8 8 9 12 17 20 22 23 24 24 25 25 24 24 23 23 22 22 22 22 22 22 22 22 22 23 23 23 23 23 23 22 23 23 23 23 23 23 23
9 9 9 9 9 9 8 8 9 9 10 10 10 9 8 9 9 9 9 9 9 9 9 8 8 7 7 6 6 5 6 6 6 6 5 5 6 6 5 6 6 7 8 7 7 7 8 8 8 9 12 17 20 21 22 23 24 24 24 24 23 23 23 23 22 22 22 22 22 23 23 23 23 23 23 23 23 23 23 23 23 23 23 23 23 23
8 8 8 8 8 8 8 8 8 8 8 9 9 9 9 9 9 9 8 8 8 7 7 6 6 6 7 7 6 6 6 6 6 6 5 6 6 5 5 5 6 7 7 7 7 7 8 8 8 8 9 15 19 20 22 22 23 23 24 24 23 23 23 23 23 23 23 23 23 23 23 24 24 24 23 23 23 23 23 23 23 23 23 23 23 23
7 7 7 8 9 10 10 10 10 10 9 8 8 8 8 9 9 8 7 6 6 6 6 6 7 7 7 7 7 6 6 7 7 6 5 5 5 5 5 5 6 7 7 6 7 7 7 8 8 8 8 12 16 20 21 22 22 23 23 23 23 23 23 23 23 23 23 23 24 24 24 24 24 24 23 23 23 23 23 23 23 23 23 23 23 23
11 10 10 12 14 16 18 18 17 17 16 12 10 8 8 9 8 8 7 7 6 6 6 7 8 8 7 6 6 6 6 7 7 7 6 5 5 5 5 5 6 6 6 6 6 7 7 7 7 7 7 9 13 17 20 21 22 22 23 23 23 23 23 23 23 23 24 24 24 24 24 24 24 24 24 23 23 23 23 23 23 24 23 23 23 22
20 19 18 19 20 22 23 24 24 24 24 20 16 13 10 9 8 8 9 8 8 7 8 8 8 8 7 7 6 6 6 6 7 7 7 5 5 5 5 5 6 6 6 6 6 7 8 7 7 7 7 7 9 12 18 20 21 22 22 22 23 23 23 23 23 24 24 24 24 24 24 24 24 24 24 23 23 23 23 23 23 23 23 22 20 19
26 25 24 23 22 23 24 25 26 27 28 27 25 21 15 11 10 10 11 9 9 8 9 9 9 8 8 7 7 6 6 6 7 7 7 5 5 5 5 5 5 6 6 5 5 6 8 7 7 7 7 7 7 9 13 17 19 21 21 22 22 23 23 23 23 24 24 24 24 24 24 24 24 24 24 23 23 23 23 23 23 23 21 18 15 12
24 24 25 24 23 22 22 23 25 26 28 29 28 25 19 12 11 11 11 9 9 9 10 10 9 9 8 7 6 6 6 6 7 7 7 6 5 5 5 5 5 6 5 4 4 5 6 7 7 7 7 8 7 8 9 13 15 17 18 21 22 22 23 23 24 24 24 24 24 24 24 24 24 24 24 23 23 23 23 23 23 20 17 14 12 10
16 18 19 19 19 19 17 17 18 21 25 28 29 27 20 13 11 10 10 9 9 9 10 10 9 9 7 6 6 5 6 6 7 7 7 6 5 5 5 5 6 6 5 4 3 4 4 5 6 7 7 8 8 7 7 9 10 11 12 16 18 19 22 23 23 24 24 24 24 24 24 24 24 24 24 23 23 23 23 23 22 18 12 11 10 10
11 12 12 12 12 12 10 10 11 13 17 21 24 23 19 13 10 9 9 9 9 9 9 9 9 8 8 6 5 5 5 6 7 8 8 6 5 5 6 6 6 6 6 5 4 3 3 4 5 6 7 8 8 7 7 8 8 8 8 9 11 14 18 20 22 22 23 23 24 24 24 24 24 24 23 23 23 23 23 23 21 17 11 10 10 10
10 9 9 9 8 8 7 7 7 7 9 12 14 15 15 13 11 9 9 9 9 9 9 9 9 8 8 7 7 6 4 4 7 9 9 6 5 5 6 6 6 6 6 6 5 4 3 3 3 4 6 6 7 7 8 8 8 7 8 8 8 10 14 16 18 18 19 20 22 23 23 23 23 23 23 23 23 23 23 23 21 17 12 10 10 10
9 8 8 8 7 7 6 7 6 6 6 7 7 8 10 10 10 10 9 9 9 9 9 9 9 9 9 9 8 7 5 4 6 9 11 7 5 5 5 6 6 6 6 6 6 5 4 3 3 3 4 5 5 6 7 7 8 8 8 8 7 8 11 12 13 13 13 15 16 18 20 21 22 22 22 22 23 23 23 24 23 20 15 11 10 10
9 9 8 8 7 7 7 7 7 7 7 7 7 7 7 7 8 8 8 9 9 9 10 10 10 9 9 9 8 8 7 6 7 9 11 8 6 5 5 6 6 6 6 6 6 5 4 4 3 3 3 4 4 5 6 7 7 8 8 8 7 7 8 9 9 9 10 11 11 12 14 15 17 18 19 20 21 21 22 23 23 22 20 15 12 11
9 9 9 8 8 8 8 8 8 8 8 7 7 8 7 7 7 6 6 7 8 9 9 10 10 10 10 9 9 8 8 7 8 10 11 9 7 5 5 6 6 6 6 6 6 5 4 5 5 5 3 3 4 5 5 6 7 7 7 7 8 7 7 8 8 8 9 9 9 9 9 10 11 12 14 16 18 19 20 21 22 23 23 20 17 14
9 9 9 9 8 8 8 8 8 8 8 8 8 8 8 8 7 7 7 7 7 9 9 10 10 10 10 10 9 9 8 7 8 10 11 10 8 6 5 6 6 7 6 6 6 5 5 5 6 6 6 5 4 4 5 5 6 6 7 7 8 8 8 8 8 8 8 8 9 9 9 9 9 9 11 14 16 18 20 21 22 22 23 23 22 19
9 9 10 9 9 8 8 8 8 8 8 8 8 8 8 8 8 8 8 7 7 8 9 10 11 11 12 10 10 9 8 7 8 10 12 10 9 8 6 6 7 8 7 7 7 6 6 5 6 6 6 6 5 4 4 5 6 6 7 7 8 8 8 8 8 8 8 9 9 9 9 9 9 9 10 13 15 17 18 20 21 22 23 24 24 24
9 10 10 9 9 8 8 8 8 8 8 8 8 8 8 8 9 9 8 8 8 8 8 8 9 11 14 13 12 10 8 7 8 10 12 11 10 9 8 7 7 8 8 8 7 7 6 6 6 6 6 6 6 5 5 5 6 7 7 7 8 8 8 8 9 9 9 9 10 10 10 10 9 9 9 10 11 11 13 14 15 17 20 20 22 24
9 9 10 10 9 8 8 8 8 8 7 7 7 7 7 8 8 8 8 8 8 8 8 8 8 9 12 13 14 12 11 9 9 10 11 11 10 9 9 8 8 8 8 8 7 7 7 7 7 6 5 5 6 6 6 6 6 7 7 7 7 8 8 8 9 9 9 9 10 10 10 10 9 9 9 9 9 9 10 10 11 12 13 13 14 17
9 10 10 10 9 9 9 9 8 7 7 7 7 7 7 7 7 7 7 7 8 8 8 8 8 7 9 11 12 13 13 11 10 10 11 11 11 10 9 9 8 8 8 8 8 8 8 8 7 7 7 6 5 5 5 6 7 7 7 6 6 7 8 8 8 9 9 9 9 10 9 9 9 9 9 9 9 9 9 9 9 9 10 9 9 10
10 10 10 9 9 9 9 8 8 7 7 7 7 7 7 6 6 6 6 7 7 8 8 8 7 7 7 9 10 12 13 12 12 11 10 11 12 11 10 9 9 8 8 8 8 8 9 8 8 8 7 7 7 6 7 7 8 9 9 8 7 6 7 8 9 9 9 9 9 10 10 10 10 10 10 10 10 9 9 9 9 9 9 9 9 9
10 10 9 8 8 8 8 7 8 8 8 7 7 7 7 7 7 7 6 7 7 7 7 7 7 7 7 8 9 10 12 12 13 13 12 13 13 13 11 10 9 8 8 8 9 9 9 9 9 8 8 7 7 7 7 7 8 9 9 8 8 7 7 8 8 8 9 9 9 10 11 10 10 10 10 10 9 9 9 10 11 11 10 9 9 9
9 9 8 8 7 7 7 8 8 8 8 8 8 8 8 8 7 7 7 7 7 7 7 7 7 7 7 7 8 8 9 11 13 14 14 14 15 15 13 12 11 9 8 8 8 9 9 10 9 9 8 8 8 7 8 8 8 8 9 9 8 7 5 6 6 7 8 9 9 9 10 9 9 9 9 9 9 9 9 10 12 12 12 11 10 10
8 7 7 7 7 7 7 7 8 8 8 8 8 8 8 8 8 8 8 7 7 7 7 6 7 7 7 8 7 7 7 9 11 13 14 15 16 16 14 14 13 11 10 9 8 8 8 9 9 9 8 8 8 8 8 8 8 8 8 9 9 8 7 6 6 7 7 8 9 9 9 9 9 8 8 9 9 9 9 9 10 10 12 11 11 11
7 6 6 6 7 7 8 8 8 8 8 8 9 8 8 8 8 8 8 7 7 7 7 6 6 6 7 7 7 7 6 7 7 9 10 13 16 17 16 14 13 12 11 10 9 8 8 8 8 8 8 8 8 8 9 9 8 9 9 9 10 10 9 8 7 7 8 8 8 9 9 9 8 8 9 9 9 9 9 9 10 10 11 11 11 11
7 6 6 6 7 8 9 9 9 9 8 9 9 8 8 8 8 8 8 8 8 7 7 7 6 6 7 7 7 6 6 6 6 6 6 7 9 11 12 12 11 10 9 9 9 9 8 8 8 8 7 7 8 9 9 9 9 9 9 9 9 9 9 9 9 9 9 9 9 9 10 9 9 9 9 9 9 9 9 10 10 11 11 11 11 11
7 7 7 7 7 8 9 9 9 9 9 9 9 8 8 8 8 8 8 8 8 7 7 7 7 7 8 7 7 7 6 7 7 7 6 6 6 6 7 7 8 9 7 7 8 8 8 8 7 7 7 7 8 9 9 9 9 9 9 9 9 9 9 9 9 9 9 9 9 9 10 9 9 9 10 9 9 9 10 10 11 11 11 11 11 12
7 7 7 7 7 8 8 8 9 9 9 9 9 8 8 9 9 9 8 9 8 8 8 7 8 8 8 8 8 7 8 7 7 7 7 7 6 6 5 5 5 5 6 6 7 7 7 7 7 7 7 8 8 8 9 9 9 9 9 8 8 9 9 9 9 9 9 9 10 10 10 9 9 9 10 9 9 9 10 10 10 10 11 11 11 12
7 7 7 7 7 7 8 8 8 9 9 9 8 8 8 9 10 11 9 8 8 8 8 8 8 8 8 8 8 8 9 8 7 7 7 7 7 6 6 5 4 4 4 5 5 6 6 7 8 8 8 8 8 8 9 9 9 9 8 8 8 8 9 9 9 9 9 9 10 10 10 9 9 9 9 10 10 11 10 10 11 11 11 11 11 12
7 7 7 6 6 7 7 8 8 8 9 9 8 8 7 8 9 9 9 8 8 8 8 8 8 8 9 8 8 8 9 8 8 7 7 7 7 7 7 6 6 5 4 5 5 5 5 5 7 9 11 12 11 10 9 9 9 8 8 8 8 8 9 9 9 9 9 9 9 10 10 10 9 9 9 10 11 12 11 11 11 11 11 11 11 12
7 7 7 6 6 6 6 7 7 8 8 8 8 8 7 7 7 8 8 8 8 8 8 8 8 9 9 9 9 9 9 8 8 8 8 7 6 7 7 7 7 7 6 6 6 5 5 5 6 8 11 15 16 15 10 9 9 9 9 9 8 8 8 9 9 9 9 9 9 9 9 10 9 9 9 9 10 11 11 11 11 11 11 11 11 12
Wind_Direction
262 258 242 220 221 229 228 218 220 226 229 224 224 228 234 237 241 244 244 243 243 243 243 244 244 245 245 246 246 246 247 246 246 245 244 243 242 242 241 239 238 237 235 234 234 233 233 232 231 230 230 230 230 230 231 232 233 234 235 236 237 239 240 240 241 241 241 241 241 241 242 242 243 243 243 244 245 247 248 251 253 256 258 260 261 262
259 257 250 232 232 237 241 223 221 225 233 231 229 229 231 235 239 243 243 243 243 243 243 244 244 244 244 244 245 246 246 247 247 246 245 244 244 243 242 240 239 238 236 235 234 233 232 231 231 230 229 229 229 230 230 231 233 234 235 237 238 240 240 241 241 241 241 241 241 242 242 242 243 244 244 245 247 248 250 253 255 258 259 260 261 262
260 258 252 240 237 240 247 233 227 227 233 235 235 234 235 237 238 240 240 242 242 242 243 243 244 245 244 244 244 245 245 246 247 247 247 246 245 244 243 241 240 238 236 235 234 233 232 231 230 229 229 229 229 229 230 231 232 234 235 237 239 240 241 242 242 242 242 242 243 243 243 243 244 245 246 248 249 250 252 254 256 258 259 260 261 261
259 258 254 248 242 242 245 242 237 233 232 235 237 238 238 239 240 240 240 241 242 242 243 244 245 246 246 244 244 244 244 246 247 247 248 247 246 245 244 243 241 239 237 235 234 233 232 231 230 229 228 228 229 229 230 231 233 234 236 237 239 240 241 242 242 243 243 243 243 244 244 245 246 247 248 250 251 252 254 255 256 257 258 259 259 260
255 255 255 252 248 246 244 244 242 239 234 234 235 236 237 239 242 243 244 243 243 243 243 244 244 245 247 245 244 244 244 246 247 247 248 248 248 247 246 244 242 240 238 236 234 232 231 230 229 229 228 228 229 229 231 232 233 235 236 237 239 240 241 241 241 242 242 243 243 244 244 245 247 248 249 250 251 253 254 254 255 256 257 257 258 259
255 253 253 250 249 249 247 242 239 236 235 233 232 232 234 237 241 244 245 245 244 243 242 242 243 244 246 246 246 246 246 247 247 248 248 249 249 248 248 246 244 242 240 237 235 233 231 230 229 229 229 229 229 230 232 233 235 236 237 238 239 239 240 240 240 240 240 241 242 242 243 244 245 247 248 249 250 251 252 252 253 254 256 257 258 259
255 252 250 249 248 248 247 241 235 231 231 233 232 231 231 234 237 240 242 243 243 244 243 243 243 244 245 247 248 249 249 250 250 250 250 250 249 249 249 248 246 244 241 238 236 233 231 230 229 229 229 230 230 231 233 234 236 237 238 238 239 239 239 239 238 238 239 239 239 240 241 242 243 245 246 247 248 249 249 250 252 253 255 256 258 259
256 253 246 246 246 246 243 237 232 228 228 231 232 232 231 231 232 235 238 240 241 243 245 245 244 244 244 245 248 249 250 251 251 251 250 250 250 249 249 248 247 245 243 240 237 234 232 231 230 230 230 231 232 233 234 236 237 238 238 238 238 238 238 237 237 237 237 237 237 238 239 240 241 243 244 245 246 247 248 249 251 253 255 257 258 259
254 253 248 243 242 243 244 238 231 225 224 227 229 230 232 233 233 233 233 235 235 235 237 241 244 244 243 243 244 246 247 247 247 247 248 248 248 248 248 248 248 246 244 241 239 236 233 232 231 231 232 232 233 234 236 237 238 239 239 238 238 237 237 236 236 236 236 236 236 236 237 239 240 241 242 243 244 245 247 249 251 253 256 258 259 260
250 251 251 246 241 239 243 242 235 225 220 225 228 230 232 235 236 237 236 234 230 227 227 234 238 242 243 240 239 240 243 245 245 245 244 244 244 245 246 247 248 247 246 244 242 239 237 235 234 233 234 234 235 236 237 238 238 239 239 238 237 236 235 235 235 235 235 235 235 236 237 238 239 240 241 242 243 244 246 249 251 254 256 258 259 260
247 247 248 247 243 239 239 241 237 226 217 223 229 232 232 233 236 239 242 240 234 227 225 228 231 235 239 238 236 235 236 241 243 244 244 243 243 244 244 245 246 247 247 246 245 243 241 239 238 237 237 237 237 237 237 238 239 239 238 237 236 235 234 234 234 234 234 234 235 236 237 237 238 239 240 241 242 244 246 249 252 254 256 257 258 259
246 245 244 244 242 239 237 237 233 223 214 218 225 231 232 230 231 236 243 244 240 233 229 228 228 228 231 234 234 233 233 236 238 240 241 241 241 242 242 243 244 245 246 247 246 246 245 244 243 242 240 240 239 238 238 238 239 238 238 237 235 234 233 232 232 233 233 234 235 236 236 237 238 238 239 240 242 244 246 249 252 253 255 256 257 257
243 242 242 242 239 237 233 231 227 220 215 217 222 227 230 227 227 231 239 244 243 239 235 234 232 229 227 228 229 231 232 235 235 235 235 235 235 235 237 239 240 241 241 243 244 244 245 245 244 244 243 242 241 239 239 238 238 238 237 236 234 233 232 232 232 232 233 234 234 235 236 237 237 238 238 240 242 244 247 249 251 253 254 254 255 256
239 238 238 238 237 233 229 225 224 223 221 221 224 228 231 228 226 228 234 240 241 240 239 241 239 236 229 225 225 226 230 234 235 235 234 232 229 228 231 235 237 238 238 240 241 241 241 242 243 244 243 242 241 240 238 238 238 237 236 235 234 232 231 231 231 232 233 233 234 235 235 236 236 237 238 240 242 245 248 250 251 252 253 254 255 255
232 232 233 234 233 230 225 222 224 226 226 224 226 229 233 230 226 225 229 236 238 237 237 242 243 241 235 225 221 220 224 229 232 233 233 232 228 226 227 232 235 236 236 239 240 241 239 239 239 240 240 239 238 237 236 236 236 235 235 234 233 232 231 231 231 232 232 233 233 234 234 235 236 237 238 241 243 246 248 250 251 252 253 253 254 255
226 225 228 232 232 229 223 220 221 225 227 225 223 223 226 227 224 222 225 231 232 232 232 238 242 243 239 226 216 213 216 223 228 231 233 233 228 224 223 229 233 234 233 235 238 239 238 237 237 237 237 235 235 234 233 234 234 233 233 232 232 231 230 230 230 231 231 232 232 232 233 234 235 236 238 241 244 246 248 250 251 252 252 253 254 255
225 224 226 229 230 229 224 220 219 220 221 221 220 220 220 222 222 221 222 225 226 228 228 232 237 242 243 227 213 206 207 216 223 229 232 233 229 222 219 225 230 232 232 233 234 235 234 234 235 234 234 232 232 231 231 231 231 231 231 231 230 230 229 229 229 230 230 230 230 231 231 232 234 236 239 242 244 247 248 249 250 251 252 253 254 255
225 224 226 228 229 228 223 220 217 216 215 217 220 221 222 221 220 220 222 222 223 226 228 229 232 237 243 234 214 200 198 209 218 226 231 234 231 225 219 224 229 233 234 233 233 232 231 232 232 231 231 228 228 228 228 228 229 229 229 229 229 228 228 228 228 228 228 228 229 229 230 232 234 236 239 242 245 247 248 249 250 251 252 253 254 254
225 223 224 227 228 227 224 220 217 215 214 215 216 218 220 219 217 217 220 221 223 224 227 230 233 235 239 239 223 199 190 202 213 222 229 233 231 226 219 223 229 234 236 235 233 231 230 232 231 231 230 227 225 225 224 225 225 226 226 226 226 226 226 226 226 226 226 226 227 228 230 232 234 237 240 242 245 246 248 249 250 251 252 253 254 254
229 226 223 224 226 228 228 224 219 215 214 214 213 213 215 214 214 215 218 220 222 224 225 229 232 234 235 238 231 211 187 193 205 218 228 232 231 225 218 221 227 232 235 234 232 230 229 230 230 229 227 226 224 223 222 222 223 223 223 224 224 223 223 223 223 224 224 225 227 228 230 232 235 238 240 243 245 246 248 249 250 251 252 253 253 254
232 231 225 220 221 225 228 225 221 218 215 211 210 210 212 211 213 215 216 217 220 223 224 227 230 231 232 234 230 215 190 192 201 213 225 230 228 223 214 217 223 230 234 233 231 228 228 228 228 228 228 226 224 222 221 221 221 221 221 221 221 221 221 222 222 223 224 226 227 229 231 234 236 238 241 243 245 246 248 249 251 251 252 253 253 254
232 234 230 224 223 225 228 226 223 220 216 210 207 208 210 209 211 214 214 214 216 219 221 225 228 230 231 233 229 216 195 197 202 209 220 230 229 222 210 212 219 227 232 231 228 226 226 227 227 227 227 226 224 223 222 221 220 220 221 220 221 221 221 222 223 224 225 227 229 230 232 234 236 239 241 243 245 246 248 250 251 252 252 253 253 254
229 232 232 227 226 227 229 228 224 219 215 211 210 209 208 208 211 213 212 212 214 218 221 225 229 232 233 233 229 219 203 202 204 210 220 231 231 224 209 208 215 223 229 227 225 223 223 225 225 225 226 225 225 223 222 221 221 220 220 221 221 221 222 223 224 225 227 228 230 231 233 235 237 239 241 243 245 247 248 250 251 252 252 253 253 254
228 228 227 225 224 224 226 225 222 218 215 213 212 211 210 212 214 215 214 214 215 219 222 227 230 232 232 229 227 222 209 201 202 208 220 231 233 227 212 208 214 222 226 224 222 222 222 223 223 222 224 224 224 223 222 221 221 220 221 221 221 222 223 224 225 226 228 229 230 232 234 235 237 239 242 243 245 247 249 250 251 252 252 253 254 255
229 224 220 218 217 216 218 218 218 216 214 213 212 211 211 214 217 220 220 216 215 216 218 222 226 228 228 223 223 221 211 201 200 205 216 229 234 231 220 212 215 221 225 222 220 221 222 223 221 220 221 223 223 223 222 222 221 221 221 221 222 222 223 224 225 227 228 229 231 232 234 236 238 240 242 244 246 247 249 250 251 251 252 253 254 255
234 227 221 218 217 217 218 219 219 217 215 213 210 208 207 210 213 216 217 213 209 207 210 217 222 225 223 220 220 218 210 201 201 205 213 226 233 232 223 214 216 221 225 222 218 218 220 222 220 218 217 221 222 223 222 222 222 221 221 221 222 222 223 225 226 227 228 230 231 233 235 237 239 241 243 245 246 247 249 250 250 251 252 254 255 256
244 240 234 228 223 221 220 221 221 220 218 216 212 207 203 203 206 211 213 209 205 203 207 216 222 225 224 221 220 217 209 203 202 205 209 221 232 234 224 216 216 221 225 223 219 216 218 220 219 217 215 217 220 222 223 223 223 223 222 222 223 223 224 225 227 228 230 231 233 234 236 238 240 242 243 245 246 248 249 249 250 251 253 254 255 257
251 249 246 240 234 229 225 224 223 223 222 220 216 211 204 202 205 210 213 208 204 204 209 215 220 223 224 223 221 217 210 207 203 200 201 214 228 233 225 218 216 218 222 224 221 218 218 220 219 216 214 212 215 220 223 224 225 225 225 225 225 226 226 227 229 230 231 233 234 236 237 239 241 242 244 246 247 248 248 249 250 251 253 253 254 255
253 253 253 251 247 242 235 230 227 226 225 224 220 216 208 204 207 211 213 207 204 206 212 215 218 222 225 225 224 221 215 211 202 194 191 207 223 230 222 219 217 216 217 222 223 222 221 220 218 216 214 211 211 215 221 223 225 227 227 228 228 229 229 230 231 232 234 235 236 237 239 240 242 243 245 246 247 247 248 249 250 251 252 252 252 253
251 252 253 253 252 250 245 238 233 229 228 227 225 222 214 209 209 212 213 207 206 207 213 216 218 220 222 224 225 224 221 212 200 190 186 203 217 224 217 218 216 213 210 213 217 222 222 219 217 215 214 211 210 210 213 217 222 225 227 229 230 232 232 233 234 235 236 237 238 239 240 241 242 244 245 246 246 247 248 248 249 249 250 250 251 251
241 243 245 247 248 248 246 242 237 234 231 230 229 226 220 214 210 210 210 208 208 209 212 214 216 216 216 217 220 223 223 208 194 186 184 201 214 219 212 216 215 212 208 208 211 216 220 215 211 210 211 212 213 211 209 210 214 217 221 226 229 232 234 235 236 237 238 239 240 241 241 242 243 244 245 246 247 247 248 248 249 249 250 249 250 249
233 234 237 238 239 238 237 235 234 232 231 231 231 229 226 220 213 207 206 207 208 210 212 214 215 215 214 216 220 223 224 206 190 184 184 198 212 218 212 215 215 212 210 212 215 220 223 214 202 199 203 209 213 213 211 209 209 211 214 218 224 230 233 234 236 238 239 240 241 242 242 243 244 245 246 246 247 248 249 249 249 248 248 248 248 248
230 230 231 231 230 228 226 225 224 224 224 226 228 230 231 227 219 210 205 206 208 209 210 212 214 215 215 218 222 226 227 212 191 185 185 195 207 215 212 214 214 213 209 213 219 224 231 224 204 188 195 204 210 213 213 211 209 209 210 213 218 224 229 230 233 235 237 239 240 241 242 243 244 245 246 247 248 249 249 250 249 248 247 247 247 248
227 227 227 226 225 222 221 220 220 220 220 221 223 226 229 233 228 219 207 206 208 209 210 210 211 212 214 216 220 224 225 214 197 188 187 193 203 213 211 212 211 210 207 210 215 220 232 230 220 202 190 198 206 211 213 213 212 210 209 212 215 219 221 223 226 229 231 233 235 238 239 241 243 244 246 247 248 249 250 250 250 249 249 248 248 249
224 224 223 223 222 220 219 218 217 216 217 218 220 222 223 228 230 227 216 209 208 209 212 212 213 212 212 213 215 218 218 209 198 192 190 193 200 208 211 211 209 207 206 207 208 212 222 224 222 218 208 202 204 208 209 211 211 211 210 212 215 217 217 217 219 223 225 227 229 232 233 236 239 242 244 246 247 248 249 250 250 250 250 249 249 249
220 222 222 221 220 219 218 217 215 214 214 215 216 217 218 220 223 224 221 213 208 208 211 214 216 216 215 215 215 216 215 205 197 193 194 195 198 203 210 211 207 205 205 207 207 208 215 219 221 221 220 217 213 208 203 203 205 208 211 214 216 217 217 215 216 218 222 224 226 228 229 231 233 236 240 243 245 247 248 249 250 250 250 250 250 249
217 220 223 220 219 218 217 215 213 212 212 213 213 213 214 216 218 219 220 215 210 208 209 213 217 219 220 221 221 220 217 206 198 195 197 197 198 202 209 211 207 204 205 206 206 207 210 214 217 219 221 222 220 213 201 195 199 206 212 213 215 217 218 216 215 217 220 223 225 227 227 229 231 233 236 241 244 246 247 248 249 249 250 250 250 250
218 220 223 220 218 215 215 214 213 212 211 211 211 211 212 215 217 218 220 218 213 210 209 210 214 219 221 224 225 226 224 213 204 199 200 199 199 202 208 210 209 206 206 207 206 205 206 211 214 216 219 222 223 220 211 201 201 207 212 213 214 216 218 217 216 216 219 223 226 228 228 229 231 233 235 237 238 241 244 245 246 247 249 250 250 251
222 223 224 222 219 215 212 213 213 212 211 210 210 210 211 215 217 219 221 220 218 215 212 211 212 216 219 222 224 226 227 221 212 205 202 202 201 202 205 209 209 208 206 207 207 206 206 210 212 214 217 220 222 221 217 213 212 211 212 213 215 217 218 217 217 217 220 222 225 228 229 229 230 232 233 234 235 236 239 241 242 243 245 247 249 250
226 228 227 224 221 217 214 214 213 210 207 207 208 209 209 213 216 219 222 223 223 222 219 215 214 213 214 217 220 222 222 221 216 210 206 206 205 204 205 208 209 207 203 204 206 209 209 212 215 218 218 220 220 219 217 218 217 215 213 215 217 217 214 214 215 216 219 221 224 226 229 229 230 231 232 233 233 235 237 239 240 240 240 241 244 247
229 229 229 227 223 219 217 214 210 206 200 200 202 205 207 209 212 215 218 221 223 223 222 219 216 213 211 213 216 218 218 219 217 214 209 209 208 207 207 208 209 207 203 203 205 208 210 213 216 219 221 222 223 223 223 221 220 218 218 222 224 223 217 214 213 214 217 220 223 225 228 230 232 233 234 234 235 236 237 239 241 241 240 240 240 242
232 231 230 227 223 219 215 209 204 199 196 196 199 203 205 205 207 209 211 215 217 218 217 216 217 217 217 216 216 215 216 216 215 213 210 209 209 209 209 210 209 207 204 204 206 208 210 213 215 218 219 220 223 226 228 226 224 222 222 227 232 234 234 225 218 214 215 218 221 224 227 230 232 233 235 237 238 239 239 240 242 242 242 241 241 241
238 235 231 227 222 217 211 205 200 196 194 196 201 204 205 204 205 208 210 213 214 215 214 214 217 220 222 222 219 217 216 216 216 215 213 210 209 209 210 210 209 207 204 205 207 209 211 213 216 218 219 218 221 226 231 230 229 228 228 230 232 234 238 230 222 216 216 218 220 223 226 229 232 235 238 240 241 242 242 242 243 243 243 243 243 243
248 241 234 226 219 213 209 205 202 198 196 199 202 204 204 203 205 208 212 215 216 215 213 213 216 220 225 226 224 220 218 217 219 220 219 214 211 209 210 210 209 208 205 205 206 207 209 213 216 217 217 218 220 224 229 231 232 232 232 232 232 233 236 235 230 225 223 223 223 225 227 230 234 239 242 243 244 243 242 242 243 243 243 243 244 245
252 244 234 224 215 210 210 209 206 203 201 202 203 203 202 201 203 206 211 215 216 216 214 211 213 217 223 225 224 222 218 214 215 219 223 219 215 212 209 209 208 207 207 207 207 206 206 210 213 214 214 216 220 224 228 231 234 236 236 235 236 238 240 241 238 235 232 231 230 229 229 232 236 241 244 244 244 243 242 243 243 244 244 243 243 245
250 243 233 223 215 212 212 210 208 206 206 205 204 203 200 199 201 205 210 213 216 217 215 212 212 217 223 223 222 220 219 214 211 211 215 218 216 213 209 207 206 206 206 208 210 210 210 210 210 210 210 215 220 224 227 229 233 236 239 237 238 240 243 241 239 237 236 236 236 235 234 235 237 241 244 245 245 245 244 243 244 245 245 244 244 244
248 242 234 224 218 215 214 211 209 208 208 207 206 202 198 196 198 203 208 211 214 215 215 214 216 219 224 223 222 220 219 217 213 208 204 206 209 211 208 207 206 206 206 208 211 214 218 217 214 210 208 213 219 224 226 227 230 234 238 238 239 240 241 240 238 236 236 237 238 238 237 237 239 241 244 246 248 248 247 246 246 246 246 246 245 245
250 245 237 228 222 217 215 212 210 209 209 208 206 203 199 196 196 200 206 209 211 213 214 214 216 220 224 224 222 220 220 220 217 213 206 203 202 202 203 203 205 208 211 214 217 220 223 224 222 218 214 216 221 225 227 227 229 231 234 235 236 238 241 241 239 238 237 237 238 237 236 236 238 242 246 248 249 249 248 248 247 246 245 245 245 245
251 248 243 235 226 220 217 213 211 210 209 207 206 204 202 198 198 199 202 205 208 211 213 213 215 218 221 222 222 221 222 222 221 217 212 206 201 197 197 198 201 206 213 218 223 227 231 232 230 227 224 223 225 229 232 231 231 232 233 233 234 237 241 242 242 240 239 239 237 235 234 236 239 242 246 250 252 252 252 251 249 247 245 244 244 245
249 248 246 240 233 225 219 215 212 211 210 207 204 202 201 199 199 200 201 203 205 208 212 213 215 217 220 220 220 220 220 221 221 220 217 209 201 196 195 196 198 202 209 215 220 224 230 236 235 232 228 226 226 229 234 236 236 236 235 235 235 236 240 243 243 241 240 240 239 236 235 237 239 241 243 248 252 254 255 254 252 249 246 245 244 245
246 245 245 243 238 231 223 217 213 211 210 207 204 201 199 198 199 199 200 202 204 208 211 213 214 216 219 219 219 218 218 219 220 220 218 210 200 194 193 194 196 200 206 212 215 218 221 228 233 233 229 225 223 223 228 232 236 238 239 238 237 237 240 243 244 243 242 242 241 240 237 238 238 238 238 243 249 253 255 254 252 250 246 245 245 245